Location: Clarion
(42.7316°N, 93.7330°W)
Time: 02:18:22
(UTC+00:00)

Cosmos 1745 Rocket - Pass Details

Date: 22 April 2026
Orbit: 951 x 998 km, 83.0° (Epoch: 20 May)

Event Time Altitude Azimuth Distance (km) Brightness Sun altitude
Rises 10:07:53 0° 354° (N) 3,654 7.4 -13.3°
Reaches altitude 10° 10:10:25 10° 356° (N) 2,698 6.7 -12.9°
Maximum altitude 10:16:35 72° 81° (E) 1,003 4.3 -11.9°
Drops below altitude 10° 10:22:39 10° 166° (SSE) 2,667 6.2 -10.9°
Sets 10:25:08 0° 168° (SSE) 3,608 6.8 -10.5°
